When you browse on this site, cookies collect data to enhance your experience and personalize the content and advertising you see.
Visit our Privacy Policy to learn more. By continuing to use the site, you agree to this use of cookies and data.
  • In Romania
  • List of Countries
  • For 7 days
  • Water Temperature
  • Weather Map
  • Weather Widgets
  • user-avatar
    Login

    Hourly Weather Ischgl

    Today, 26 February, Wednesday

    Time Temperature Precipitation Wind Pressure Humidity
    00:00 -7°C° 0.5 mm 2 mps 560 mmHg 94%
    01:00 -8°C° 0.5 mm 2 mps 560 mmHg 95%
    02:00 -8°C° 1.2 mm 2 mps 559 mmHg 95%
    03:00 -9°C° 1.2 mm 2 mps 559 mmHg 95%
    04:00 -9°C° 1.2 mm 2 mps 558 mmHg 95%
    05:00 -10°C° 0.8 mm 2 mps 558 mmHg 95%
    06:00 -12°C° 0.8 mm 2 mps 557 mmHg 95%
    07:00 -13°C° 0.8 mm 3 mps 557 mmHg 94%
    08:00 -12°C° 0.3 mm 2 mps 557 mmHg 88%
    09:00 -12°C° 0.3 mm 2 mps 557 mmHg 81%
    10:00 -12°C° 0.3 mm 2 mps 557 mmHg 75%
    11:00 -12°C° 0.3 mm 3 mps 557 mmHg 74%
    12:00 -12°C° 0.3 mm 3 mps 557 mmHg 74%
    13:00 -12°C° 0.3 mm 4 mps 557 mmHg 74%
    14:00 -14°C° 0.4 mm 4 mps 557 mmHg 75%
    15:00 -14°C° 0.4 mm 4 mps 557 mmHg 76%
    16:00 -14°C° 0.4 mm 3 mps 557 mmHg 77%
    17:00 -15°C° 0.7 mm 3 mps 558 mmHg 83%
    18:00 -15°C° 0.7 mm 3 mps 558 mmHg 88%
    19:00 -16°C° 0.7 mm 3 mps 559 mmHg 94%
    20:00 -15°C° 0.4 mm 2 mps 559 mmHg 94%
    21:00 -16°C° 0.4 mm 2 mps 559 mmHg 95%
    22:00 -14°C° 0.4 mm 1 mps 560 mmHg 96%
    23:00 -14°C° 0.5 mm 1 mps 560 mmHg 96%

    Tomorrow, 27 February, Thursday

    Time Temperature Precipitation Wind Pressure Humidity
    00:00 -14°C° 0.5 mm 1 mps 561 mmHg 96%
    01:00 -14°C° 0.5 mm 1 mps 561 mmHg 96%
    02:00 -14°C° 0.3 mm 1 mps 561 mmHg 96%
    03:00 -15°C° 0.3 mm 1 mps 561 mmHg 96%
    04:00 -16°C° 0.3 mm 1 mps 560 mmHg 96%
    05:00 -16°C° 0.2 mm 1 mps 561 mmHg 95%
    06:00 -16°C° 0.2 mm 1 mps 561 mmHg 95%
    07:00 -16°C° 0.2 mm 1 mps 561 mmHg 94%
    08:00 -17°C° 0 mm 2 mps 562 mmHg 87%
    09:00 -15°C° 0 mm 2 mps 562 mmHg 79%
    10:00 -13°C° 0 mm 2 mps 563 mmHg 72%
    11:00 -13°C° 0 mm 3 mps 563 mmHg 68%
    12:00 -12°C° 0 mm 3 mps 563 mmHg 64%
    13:00 -11°C° 0 mm 4 mps 563 mmHg 60%
    14:00 -11°C° 0.4 mm 4 mps 562 mmHg 68%
    15:00 -13°C° 0.4 mm 5 mps 561 mmHg 76%
    16:00 -14°C° 0.4 mm 5 mps 560 mmHg 85%
    17:00 -14°C° 0.8 mm 5 mps 559 mmHg 86%
    18:00 -15°C° 0.8 mm 5 mps 559 mmHg 88%
    19:00 -15°C° 0.8 mm 5 mps 559 mmHg 90%
    20:00 -15°C° 0.4 mm 5 mps 559 mmHg 90%
    21:00 -16°C° 0.4 mm 4 mps 559 mmHg 90%
    22:00 -16°C° 0.4 mm 4 mps 559 mmHg 90%
    23:00 -15°C° 0.8 mm 3 mps 560 mmHg 91%

    Day after tomorrow, 28 February, Friday

    Time Temperature Precipitation Wind Pressure Humidity
    00:00 -15°C° 0.8 mm 3 mps 561 mmHg 93%
    01:00 -14°C° 0.8 mm 3 mps 561 mmHg 94%
    02:00 -15°C° 0.4 mm 3 mps 562 mmHg 95%
    03:00 -15°C° 0.4 mm 3 mps 562 mmHg 95%
    04:00 -16°C° 0.4 mm 3 mps 562 mmHg 95%
    05:00 -16°C° 0.2 mm 2 mps 563 mmHg 96%
    06:00 -17°C° 0.2 mm 2 mps 563 mmHg 96%
    07:00 -17°C° 0.2 mm 2 mps 563 mmHg 96%
    08:00 -16°C° 0 mm 2 mps 564 mmHg 90%
    09:00 -14°C° 0 mm 2 mps 565 mmHg 84%
    10:00 -13°C° 0 mm 2 mps 567 mmHg 77%
    11:00 -10°C° 0 mm 1 mps 567 mmHg 66%
    12:00 -9°C° 0 mm 1 mps 567 mmHg 54%
    13:00 -8°C° 0 mm 1 mps 568 mmHg 42%
    14:00 -7°C° 0 mm 1 mps 568 mmHg 46%
    15:00 -6°C° 0 mm 1 mps 568 mmHg 50%
    16:00 -6°C° 0 mm 1 mps 568 mmHg 54%
    17:00 -6°C° 0 mm 1 mps 568 mmHg 59%
    18:00 -7°C° 0 mm 1 mps 567 mmHg 63%
    19:00 -9°C° 0 mm 2 mps 567 mmHg 68%
    20:00 -9°C° 0.1 mm 2 mps 567 mmHg 71%
    21:00 -9°C° 0.1 mm 2 mps 567 mmHg 75%
    22:00 -9°C° 0.1 mm 2 mps 567 mmHg 78%
    23:00 -9°C° 0.1 mm 2 mps 567 mmHg 75%

    29 February, Saturday

    Time Temperature Precipitation Wind Pressure Humidity
    00:00 -9°C° 0.1 mm 2 mps 567 mmHg 71%
    01:00 -9°C° 0.1 mm 2 mps 566 mmHg 68%
    02:00 -9°C° 0.1 mm 2 mps 566 mmHg 67%
    03:00 -9°C° 0.1 mm 2 mps 566 mmHg 67%
    04:00 -9°C° 0.1 mm 2 mps 565 mmHg 67%
    05:00 -9°C° 0 mm 2 mps 565 mmHg 67%
    06:00 -9°C° 0 mm 2 mps 565 mmHg 67%
    07:00 -9°C° 0 mm 2 mps 565 mmHg 67%
    08:00 -8°C° 0 mm 3 mps 565 mmHg 70%
    09:00 -7°C° 0 mm 3 mps 566 mmHg 74%
    10:00 -5°C° 0 mm 3 mps 566 mmHg 78%
    11:00 -5°C° 0 mm 3 mps 566 mmHg 81%
    12:00 -4°C° 0 mm 3 mps 565 mmHg 84%
    13:00 -4°C° 0 mm 4 mps 565 mmHg 87%
    14:00 -4°C° 0 mm 4 mps 564 mmHg 85%
    15:00 -5°C° 0 mm 4 mps 564 mmHg 84%
    16:00 -5°C° 0 mm 4 mps 563 mmHg 83%
    17:00 -8°C° 0 mm 4 mps 563 mmHg 83%
    18:00 -10°C° 0 mm 4 mps 562 mmHg 84%
    19:00 -12°C° 0 mm 4 mps 561 mmHg 85%
    20:00 -12°C° 0 mm 3 mps 561 mmHg 86%
    21:00 -12°C° 0 mm 3 mps 562 mmHg 86%
    22:00 -12°C° 0 mm 3 mps 562 mmHg 87%
    23:00 -10°C° 0.1 mm 3 mps 562 mmHg 89%

    1 March, Sunday

    Time Temperature Precipitation Wind Pressure Humidity
    00:00 -9°C° 0.1 mm 2 mps 562 mmHg 91%
    01:00 -9°C° 0.1 mm 2 mps 562 mmHg 93%
    02:00 -8°C° 0.5 mm 1 mps 561 mmHg 94%
    03:00 -8°C° 0.5 mm 1 mps 561 mmHg 95%
    04:00 -8°C° 0.5 mm 0 mps 561 mmHg 96%
    05:00 -8°C° 0.7 mm 0 mps 561 mmHg 96%
    06:00 -8°C° 0.7 mm 0 mps 561 mmHg 96%
    07:00 -8°C° 0.7 mm 0 mps 561 mmHg 97%
    08:00 -7°C° 0.3 mm 1 mps 561 mmHg 95%
    09:00 -6°C° 0.3 mm 1 mps 562 mmHg 93%
    10:00 -4°C° 0.3 mm 1 mps 562 mmHg 92%
    11:00 -4°C° 0.1 mm 1 mps 562 mmHg 91%
    12:00 -3°C° 0.1 mm 1 mps 562 mmHg 91%
    13:00 -3°C° 0.1 mm 1 mps 562 mmHg 90%
    14:00 -2°C° 0 mm 1 mps 561 mmHg 87%
    15:00 -4°C° 0 mm 2 mps 561 mmHg 83%
    16:00 -4°C° 0 mm 2 mps 561 mmHg 80%
    17:00 -5°C° 0 mm 2 mps 560 mmHg 82%
    18:00 -8°C° 0 mm 3 mps 559 mmHg 84%
    19:00 -10°C° 0 mm 4 mps 559 mmHg 86%
    20:00 -10°C° 0 mm 4 mps 559 mmHg 87%
    21:00 -10°C° 0 mm 3 mps 559 mmHg 88%
    22:00 -10°C° 0 mm 3 mps 559 mmHg 88%
    23:00 -10°C° 0.4 mm 3 mps 559 mmHg 90%

    2 March, Monday

    Time Temperature Precipitation Wind Pressure Humidity
    00:00 -9°C° 0.4 mm 2 mps 559 mmHg 91%
    01:00 -10°C° 0.4 mm 2 mps 559 mmHg 93%
    02:00 -10°C° 0.2 mm 2 mps 559 mmHg 91%
    03:00 -12°C° 0.2 mm 3 mps 558 mmHg 90%
    04:00 -12°C° 0.2 mm 3 mps 558 mmHg 88%
    05:00 -13°C° 0 mm 3 mps 558 mmHg 87%
    06:00 -14°C° 0 mm 4 mps 557 mmHg 87%
    07:00 -14°C° 0 mm 4 mps 557 mmHg 86%
    08:00 -11°C° 0 mm 4 mps 558 mmHg 86%
    09:00 -9°C° 0 mm 3 mps 559 mmHg 86%
    10:00 -7°C° 0 mm 3 mps 560 mmHg 86%
    11:00 -6°C° 0.1 mm 3 mps 560 mmHg 87%
    12:00 -5°C° 0.1 mm 2 mps 560 mmHg 89%
    13:00 -4°C° 0.1 mm 2 mps 560 mmHg 90%
    14:00 -2°C° 0.2 mm 1 mps 560 mmHg 91%
    15:00 -2°C° 0.2 mm 1 mps 559 mmHg 92%
    16:00 -2°C° 0.2 mm 1 mps 559 mmHg 92%
    17:00 -3°C° 0.3 mm 1 mps 558 mmHg 93%
    18:00 -4°C° 0.3 mm 1 mps 558 mmHg 95%
    19:00 -4°C° 0.3 mm 1 mps 557 mmHg 96%
    20:00 -6°C° 0.1 mm 1 mps 557 mmHg 95%
    21:00 -6°C° 0.1 mm 1 mps 557 mmHg 95%
    22:00 -6°C° 0.1 mm 1 mps 556 mmHg 95%
    23:00 -7°C° 0.1 mm 1 mps 556 mmHg 95%
    Show more